Location: Asar Burnu
(36.5203°N, 30.5523°E)
Time: 10:47:46
(UTC+00:00)

CZ-4B R/B - Pass Details

Date: 04 August 2024
Orbit: 807 x 881 km, 99.0° (Epoch: 18 September)

Event Time Altitude Azimuth Distance (km) Brightness Sun altitude
Exits shadow 18:03:19 - 172° (S) 3,338 5.9 -12.1°
Reaches altitude 10° 18:05:26 10° 175° (S) 2,515 5.3 -12.4°
Maximum altitude 18:11:01 68° 258° (WSW) 943 3.6 -13.4°
Drops below altitude 10° 18:16:40 10° 341° (NNW) 2,545 6.5 -14.3°
Sets 18:19:06 0° 344° (NNW) 3,487 7.2 -14.7°
